IRIDIUM 11 [B] (25578 NORAD) Tracking and Keplerian Element Data

This shows tracking and keplerian element data for the satellite.

Feedback or suggestion? Click here.




ElementValue
Catalog25578
NameIRIDIUM 11 [B]
Epoch Orbit3414
Epoch Day198.80883895
Epoch Year2018
RAAN90.2782
Inclination86.4221
Eccentricity0.0001266
Argument of Perigee85.8474
Mean Anonmoly343.4582
Mean Motion14.3860956
Decay Rate1.29E-06
L11 25578U 98074B 18198.80883895 .00000129 00000-0 35767-4 0 9995
L22 25578 86.4221 90.2782 0001266 85.8474 343.4582 14.38609560 34144

Live tracking and technical data element details for IRIDIUM 11 [B] (NORAD 25578). IRIDIUM 11 [B] can be tracked NOW for your location showing map with azimuth and elevation plus other details from your city location.

Track the satellite on the map from your city or location and see movement details for azimuth, elevation, latitude, longitude, range, height, and movement on the map or in text.







IsCatalogInMostPopularTable: catalog: 25578, numindb: 31
Update: records affected: 1



GetName: 25578 IRIDIUM 11 [B]

Hit Count: updated at: Fri, 20 Jul 2018 07:02:55 GMT